| time (UTC) | temp F | wind direction | speed MPH | gust MPH | rain 1hr in | rain 24hr in | rain mn in | humidity % | barometer mb |
| 20260507020500 | 44 | 241 | 0.0 | 0.0 | 0.00 | 0.78 | 0.60 | 92 | 1011.5 |
| 20260507020002 | 44 | 241 | 0.0 | 0.0 | 0.00 | 0.91 | 0.60 | 92 | 1011.6 |
| 20260507015500 | 44 | 241 | 0.0 | 0.0 | 0.00 | 0.91 | 0.60 | 92 | 1011.5 |
| 20260507015002 | 44 | 241 | 0.0 | 0.0 | 0.00 | 0.91 | 0.60 | 92 | 1011.7 |
| 20260507014500 | 44 | 241 | 0.0 | 0.0 | 0.00 | 0.91 | 0.60 | 92 | 1011.6 |
| 20260507014004 | 44 | 241 | 0.0 | 0.0 | 0.00 | 0.91 | 0.60 | 92 | 1011.6 |
| 20260507013500 | 44 | 241 | 0.0 | 0.0 | 0.00 | 0.91 | 0.60 | 92 | 1011.5 |
| 20260507012505 | 44 | 241 | 0.0 | 0.0 | 0.00 | 0.91 | 0.60 | 92 | 1011.6 |
| 20260507012004 | 44 | 241 | 0.0 | 0.0 | 0.00 | 0.91 | 0.60 | 92 | 1011.2 |
| 20260507011000 | 44 | 241 | 0.0 | 0.0 | 0.00 | 0.91 | 0.60 | 91 | 1011.2 |
| 20260507010505 | 44 | 241 | 0.0 | 0.0 | 0.00 | 0.91 | 0.60 | 91 | 1011.2 |
| 20260507010005 | 44 | 241 | 0.0 | 0.0 | 0.00 | 0.99 | 0.60 | 91 | 1011.2 |
| 20260507005505 | 44 | 241 | 0.0 | 0.0 | 0.00 | 0.99 | 0.60 | 91 | 1011.1 |
| 20260507005005 | 44 | 241 | 0.0 | 0.0 | 0.00 | 0.99 | 0.60 | 90 | 1011.2 |
| 20260507004506 | 44 | 241 | 0.0 | 0.0 | 0.00 | 0.99 | 0.60 | 90 | 1011.2 |
| 20260507004006 | 44 | 241 | 0.0 | 0.0 | 0.00 | 0.99 | 0.60 | 90 | 1011.1 |
| 20260507003007 | 44 | 241 | 0.0 | 0.0 | 0.00 | 0.99 | 0.60 | 90 | 1011.0 |
| 20260507002506 | 44 | 241 | 0.0 | 0.0 | 0.00 | 0.99 | 0.60 | 89 | 1011.0 |
| 20260507002005 | 44 | 241 | 0.0 | 0.0 | 0.00 | 0.99 | 0.60 | 89 | 1010.9 |
| 20260507001505 | 44 | 241 | 0.0 | 0.0 | 0.00 | 0.99 | 0.60 | 89 | 1010.9 |
| 20260507001005 | 45 | 241 | 0.0 | 0.0 | 0.00 | 0.99 | 0.60 | 89 | 1010.9 |
| 20260507000505 | 45 | 241 | 0.0 | 0.0 | 0.00 | 0.99 | 0.60 | 89 | 1010.9 |
| 20260507000005 | 45 | 241 | 0.0 | 0.0 | 0.00 | 0.99 | 0.60 | 88 | 1010.8 |
| 20260506235500 | 45 | 241 | 0.0 | 0.0 | 0.00 | 0.99 | 0.60 | 88 | 1010.6 |
| 20260506235001 | 45 | 241 | 0.0 | 3.0 | 0.00 | 0.99 | 0.60 | 88 | 1010.5 |
| 20260506234500 | 45 | 274 | 0.0 | 2.0 | 0.00 | 0.99 | 0.60 | 88 | 1010.5 |
| 20260506234002 | 45 | 294 | 0.0 | 1.0 | 0.00 | 0.99 | 0.60 | 88 | 1010.4 |
| 20260506233501 | 45 | 302 | 0.0 | 3.0 | 0.00 | 0.99 | 0.60 | 88 | 1010.4 |
| 20260506233006 | 45 | 302 | 0.0 | 3.0 | 0.00 | 0.99 | 0.60 | 87 | 1010.5 |
| 20260506232502 | 45 | 264 | 0.0 | 2.0 | 0.00 | 0.99 | 0.60 | 87 | 1010.1 |
| 20260506232004 | 45 | 261 | 1.0 | 4.0 | 0.00 | 0.99 | 0.60 | 86 | 1009.8 |
| 20260506231002 | 45 | 242 | 0.0 | 3.0 | 0.00 | 0.99 | 0.60 | 87 | 1010.1 |
| 20260506230502 | 45 | 259 | 0.0 | 1.0 | 0.00 | 0.99 | 0.60 | 87 | 1009.9 |
| 20260506230005 | 45 | 248 | 0.0 | 1.0 | 0.00 | 0.99 | 0.60 | 87 | 1009.7 |
| 20260506225500 | 46 | 248 | 0.0 | 1.0 | 0.00 | 0.99 | 0.60 | 87 | 1009.7 |
| 20260506225006 | 46 | 263 | 0.0 | 0.0 | 0.00 | 0.99 | 0.60 | 87 | 1009.6 |
| 20260506224505 | 46 | 265 | 0.0 | 0.0 | 0.00 | 0.99 | 0.60 | 87 | 1009.5 |
| 20260506223005 | 46 | 257 | 0.0 | 3.0 | 0.00 | 0.99 | 0.60 | 87 | 1010.0 |
| 20260506221505 | 46 | 227 | 0.0 | 2.0 | 0.00 | 0.99 | 0.60 | 87 | 1010.0 |
| 20260506221000 | 46 | 252 | 0.0 | 2.0 | 0.00 | 0.99 | 0.60 | 87 | 1010.0 |
| 20260506220502 | 46 | 236 | 0.0 | 2.0 | 0.00 | 0.99 | 0.60 | 87 | 1010.1 |
| 20260506214459 | 46 | 351 | 1.0 | 4.0 | 0.00 | 0.99 | 0.60 | 87 | 1009.9 |
| 20260506213958 | 46 | 37 | 1.0 | 4.0 | 0.00 | 0.99 | 0.60 | 87 | 1009.9 |
| 20260506213459 | 46 | 266 | 1.0 | 5.0 | 0.00 | 0.99 | 0.60 | 87 | 1009.8 |
| 20260506213000 | 46 | 267 | 1.0 | 5.0 | 0.00 | 0.99 | 0.60 | 88 | 1009.7 |
| 20260506212459 | 46 | 355 | 1.0 | 3.0 | 0.00 | 0.99 | 0.60 | 89 | 1009.6 |
| 20260506211501 | 46 | 254 | 1.0 | 4.0 | 0.00 | 0.99 | 0.60 | 90 | 1009.6 |
| 20260506211000 | 46 | 297 | 1.0 | 3.0 | 0.00 | 0.99 | 0.60 | 90 | 1009.6 |
| 20260506210459 | 46 | 303 | 1.0 | 3.0 | 0.00 | 0.99 | 0.60 | 90 | 1009.8 |
| 20260506210003 | 46 | 254 | 1.0 | 4.0 | 0.00 | 0.99 | 0.60 | 90 | 1009.9 |
| 20260506205501 | 46 | 176 | 1.0 | 4.0 | 0.00 | 0.99 | 0.60 | 90 | 1009.8 |
| 20260506205000 | 46 | 314 | 1.0 | 4.0 | 0.00 | 0.99 | 0.60 | 91 | 1009.7 |
| 20260506204003 | 46 | 232 | 1.0 | 6.0 | 0.00 | 0.99 | 0.60 | 92 | 1009.6 |
| 20260506203506 | 45 | 342 | 1.0 | 6.0 | 0.00 | 0.99 | 0.60 | 92 | 1009.4 |
| 20260506203000 | 45 | 103 | 1.0 | 4.0 | 0.00 | 0.99 | 0.60 | 92 | 1009.4 |
| 20260506202503 | 45 | 283 | 1.0 | 4.0 | 0.00 | 0.99 | 0.60 | 93 | 1009.2 |
| 20260506202003 | 45 | 5 | 1.0 | 4.0 | 0.00 | 0.99 | 0.60 | 94 | 1009.2 |
| 20260506201459 | 45 | 342 | 1.0 | 5.0 | 0.00 | 0.99 | 0.60 | 93 | 1009.2 |
| 20260506201004 | 45 | 217 | 1.0 | 5.0 | 0.00 | 0.99 | 0.60 | 93 | 1009.2 |
| 20260506200501 | 45 | 360 | 2.0 | 4.0 | 0.00 | 0.99 | 0.60 | 93 | 1009.2 |
| 20260506200006 | 45 | 319 | 1.0 | 4.0 | 0.00 | 0.99 | 0.60 | 93 | 1009.2 |
| 20260506195000 | 45 | 311 | 1.0 | 3.0 | 0.00 | 0.99 | 0.60 | 93 | 1009.2 |
| 20260506194500 | 45 | 42 | 1.0 | 4.0 | 0.00 | 0.99 | 0.60 | 93 | 1009.4 |
| 20260506193000 | 45 | 355 | 1.0 | 6.0 | 0.00 | 0.99 | 0.60 | 94 | 1009.3 |
| 20260506192502 | 45 | 360 | 1.0 | 6.0 | 0.00 | 0.99 | 0.60 | 94 | 1009.3 |
| 20260506191959 | 45 | 69 | 1.0 | 3.0 | 0.00 | 0.99 | 0.60 | 94 | 1009.2 |
| 20260506191500 | 45 | 292 | 0.0 | 3.0 | 0.00 | 0.99 | 0.60 | 94 | 1009.1 |
| 20260506191001 | 45 | 35 | 1.0 | 2.0 | 0.00 | 0.99 | 0.60 | 95 | 1008.9 |
| 20260506190500 | 45 | 27 | 1.0 | 4.0 | 0.00 | 0.99 | 0.60 | 94 | 1009.0 |
| 20260506190007 | 45 | 355 | 1.0 | 4.0 | 0.00 | 0.99 | 0.60 | 94 | 1009.0 |
| 20260506185500 | 45 | 304 | 1.0 | 8.0 | 0.00 | 0.99 | 0.60 | 94 | 1009.0 |
| 20260506185000 | 45 | 61 | 1.0 | 4.0 | 0.00 | 0.99 | 0.60 | 94 | 1009.0 |
| 20260506184002 | 45 | 34 | 0.0 | 4.0 | 0.00 | 0.99 | 0.60 | 94 | 1009.0 |
| 20260506183505 | 45 | 309 | 0.0 | 3.0 | 0.00 | 0.99 | 0.60 | 94 | 1009.0 |
| 20260506183003 | 45 | 360 | 1.0 | 3.0 | 0.00 | 0.99 | 0.60 | 94 | 1009.0 |
| 20260506182003 | 45 | 275 | 0.0 | 3.0 | 0.00 | 0.99 | 0.60 | 95 | 1008.8 |
| 20260506181501 | 45 | 202 | 1.0 | 4.0 | 0.00 | 0.99 | 0.60 | 95 | 1008.6 |
| 20260506180501 | 45 | 309 | 1.0 | 5.0 | 0.01 | 0.99 | 0.60 | 94 | 1008.3 |
| 20260506180001 | 45 | 217 | 0.0 | 5.0 | 0.01 | 0.99 | 0.60 | 95 | 1008.3 |
| 20260506175504 | 45 | 348 | 1.0 | 3.0 | 0.01 | 0.99 | 0.60 | 95 | 1008.1 |
| 20260506175000 | 45 | 182 | 1.0 | 6.0 | 0.01 | 0.99 | 0.60 | 95 | 1008.0 |
| 20260506174505 | 45 | 305 | 1.0 | 6.0 | 0.01 | 0.99 | 0.60 | 94 | 1008.0 |
| 20260506174000 | 45 | 333 | 0.0 | 5.0 | 0.01 | 0.99 | 0.60 | 94 | 1008.0 |
| 20260506173503 | 45 | 327 | 0.0 | 4.0 | 0.01 | 0.99 | 0.60 | 95 | 1008.1 |
| 20260506173000 | 45 | 304 | 1.0 | 5.0 | 0.01 | 0.99 | 0.60 | 94 | 1008.2 |
| 20260506172504 | 45 | 303 | 1.0 | 5.0 | 0.01 | 0.99 | 0.60 | 94 | 1008.1 |
| 20260506172001 | 45 | 355 | 1.0 | 4.0 | 0.01 | 0.99 | 0.60 | 95 | 1008.1 |
| 20260506171004 | 46 | 286 | 1.0 | 5.0 | 0.01 | 0.99 | 0.60 | 94 | 1008.0 |
| 20260506170500 | 46 | 335 | 1.0 | 5.0 | 0.00 | 0.98 | 0.59 | 95 | 1007.8 |
| 20260506170006 | 46 | 345 | 0.0 | 3.0 | 0.01 | 0.98 | 0.59 | 95 | 1007.7 |
| 20260506165001 | 46 | 331 | 0.0 | 3.0 | 0.01 | 0.98 | 0.59 | 95 | 1007.9 |
| 20260506164002 | 46 | 314 | 0.0 | 1.0 | 0.01 | 0.98 | 0.59 | 95 | 1007.9 |
| 20260506163502 | 46 | 200 | 0.0 | 2.0 | 0.02 | 0.98 | 0.59 | 95 | 1007.9 |
| 20260506163002 | 46 | 321 | 0.0 | 3.0 | 0.02 | 0.98 | 0.59 | 95 | 1007.9 |
| 20260506162503 | 45 | 22 | 0.0 | 3.0 | 0.02 | 0.98 | 0.59 | 95 | 1007.9 |
| 20260506161506 | 45 | 349 | 0.0 | 3.0 | 0.02 | 0.98 | 0.59 | 96 | 1007.9 |
| 20260506161004 | 45 | 330 | 1.0 | 3.0 | 0.02 | 0.98 | 0.59 | 96 | 1008.1 |
| 20260506160500 | 45 | 338 | 0.0 | 3.0 | 0.02 | 0.98 | 0.59 | 95 | 1008.2 |
| 20260506160000 | 45 | 338 | 0.0 | 3.0 | 0.01 | 0.97 | 0.58 | 95 | 1008.3 |
| 20260506155500 | 45 | 331 | 0.0 | 3.0 | 0.01 | 0.97 | 0.58 | 96 | 1008.2 |
| 20260506154959 | 44 | 335 | 0.0 | 3.0 | 0.01 | 0.97 | 0.58 | 95 | 1008.1 |
| 20260506154458 | 44 | 337 | 0.0 | 2.0 | 0.01 | 0.97 | 0.58 | 96 | 1008.3 |
| 20260506153959 | 44 | 336 | 0.0 | 2.0 | 0.01 | 0.97 | 0.58 | 95 | 1008.3 |
| 20260506152959 | 44 | 28 | 0.0 | 3.0 | 0.01 | 0.96 | 0.57 | 95 | 1008.3 |
| 20260506152458 | 44 | 321 | 0.0 | 2.0 | 0.01 | 0.96 | 0.57 | 95 | 1008.4 |
| 20260506151959 | 44 | 329 | 0.0 | 1.0 | 0.01 | 0.96 | 0.57 | 95 | 1008.2 |
| 20260506151459 | 44 | 311 | 0.0 | 2.0 | 0.01 | 0.96 | 0.57 | 95 | 1008.3 |
| 20260506150959 | 44 | 336 | 0.0 | 3.0 | 0.01 | 0.96 | 0.57 | 95 | 1008.3 |
| 20260506150459 | 44 | 348 | 0.0 | 2.0 | 0.01 | 0.96 | 0.57 | 95 | 1007.8 |
| 20260506145959 | 44 | 355 | 0.0 | 2.0 | 0.01 | 0.96 | 0.57 | 95 | 1007.8 |
| 20260506144959 | 44 | 339 | 0.0 | 3.0 | 0.02 | 0.96 | 0.57 | 95 | 1007.8 |
| 20260506144459 | 44 | 320 | 0.0 | 2.0 | 0.02 | 0.96 | 0.57 | 95 | 1007.6 |
| 20260506143959 | 44 | 323 | 0.0 | 1.0 | 0.03 | 0.96 | 0.57 | 95 | 1007.6 |
| 20260506143459 | 44 | 344 | 0.0 | 2.0 | 0.02 | 0.95 | 0.56 | 95 | 1007.6 |
| 20260506142958 | 44 | 331 | 0.0 | 6.0 | 0.03 | 0.95 | 0.56 | 95 | 1007.5 |
| 20260506142459 | 43 | 14 | 0.0 | 6.0 | 0.03 | 0.95 | 0.56 | 95 | 1007.7 |
| 20260506142000 | 43 | 325 | 0.0 | 2.0 | 0.04 | 0.95 | 0.56 | 96 | 1007.8 |
| 20260506141459 | 43 | 327 | 1.0 | 3.0 | 0.04 | 0.95 | 0.56 | 96 | 1007.7 |
| 20260506140959 | 43 | 338 | 1.0 | 3.0 | 0.04 | 0.95 | 0.56 | 95 | 1007.8 |
| 20260506140458 | 43 | 296 | 0.0 | 2.0 | 0.05 | 0.95 | 0.56 | 95 | 1007.9 |
| 20260506135959 | 43 | 350 | 0.0 | 2.0 | 0.06 | 0.95 | 0.56 | 95 | 1008.0 |
| 20260506135001 | 43 | 360 | 0.0 | 3.0 | 0.07 | 0.94 | 0.55 | 95 | 1008.1 |
| 20260506134459 | 43 | 338 | 0.0 | 3.0 | 0.09 | 0.94 | 0.55 | 95 | 1008.1 |
| 20260506133959 | 43 | 342 | 1.0 | 4.0 | 0.09 | 0.93 | 0.54 | 95 | 1008.0 |
| 20260506133459 | 43 | 5 | 1.0 | 4.0 | 0.11 | 0.93 | 0.54 | 95 | 1008.1 |
| 20260506132958 | 43 | 308 | 1.0 | 3.0 | 0.11 | 0.92 | 0.53 | 95 | 1008.2 |
| 20260506132459 | 43 | 335 | 0.0 | 3.0 | 0.12 | 0.92 | 0.53 | 95 | 1008.2 |
| 20260506130958 | 43 | 329 | 0.0 | 2.0 | 0.12 | 0.91 | 0.52 | 95 | 1008.1 |
| 20260506130500 | 43 | 344 | 0.0 | 2.0 | 0.12 | 0.90 | 0.51 | 95 | 1008.1 |
| 20260506130000 | 43 | 323 | 0.0 | 2.0 | 0.11 | 0.89 | 0.50 | 95 | 1008.3 |
| 20260506125459 | 43 | 5 | 0.0 | 4.0 | 0.10 | 0.88 | 0.49 | 95 | 1008.2 |
| 20260506125000 | 43 | 13 | 0.0 | 4.0 | 0.09 | 0.87 | 0.48 | 95 | 1008.2 |
| 20260506123958 | 43 | 330 | 0.0 | 1.0 | 0.07 | 0.84 | 0.45 | 95 | 1008.2 |
| 20260506123500 | 43 | 349 | 1.0 | 4.0 | 0.05 | 0.82 | 0.43 | 95 | 1008.1 |
| 20260506122959 | 43 | 334 | 1.0 | 5.0 | 0.05 | 0.81 | 0.42 | 95 | 1008.2 |
| 20260506122459 | 43 | 321 | 1.0 | 4.0 | 0.04 | 0.80 | 0.41 | 95 | 1007.9 |
| 20260506122000 | 43 | 350 | 0.0 | 3.0 | 0.04 | 0.79 | 0.40 | 95 | 1007.9 |
| 20260506121459 | 43 | 331 | 1.0 | 4.0 | 0.04 | 0.79 | 0.40 | 95 | 1007.9 |
| 20260506121000 | 43 | 342 | 1.0 | 4.0 | 0.05 | 0.79 | 0.40 | 95 | 1007.8 |
| 20260506120459 | 43 | 319 | 1.0 | 5.0 | 0.04 | 0.78 | 0.39 | 95 | 1007.7 |
| 20260506115500 | 43 | 320 | 1.0 | 4.0 | 0.06 | 0.78 | 0.39 | 95 | 1007.9 |
| 20260506114459 | 43 | 35 | 1.0 | 5.0 | 0.07 | 0.77 | 0.38 | 95 | 1007.9 |
| 20260506114000 | 43 | 340 | 1.0 | 4.0 | 0.07 | 0.77 | 0.38 | 95 | 1008.3 |
| 20260506113504 | 43 | 17 | 1.0 | 4.0 | 0.08 | 0.77 | 0.38 | 95 | 1008.3 |
| 20260506113000 | 43 | 335 | 0.0 | 3.0 | 0.07 | 0.76 | 0.37 | 95 | 1008.2 |
| 20260506112459 | 43 | 338 | 1.0 | 3.0 | 0.08 | 0.76 | 0.37 | 95 | 1008.4 |
| 20260506111959 | 43 | 348 | 1.0 | 5.0 | 0.08 | 0.75 | 0.36 | 95 | 1008.4 |
| 20260506111500 | 43 | 351 | 1.0 | 5.0 | 0.09 | 0.75 | 0.36 | 95 | 1008.4 |
| 20260506110959 | 43 | 46 | 1.0 | 6.0 | 0.09 | 0.74 | 0.35 | 95 | 1008.6 |
| 20260506110459 | 43 | 346 | 0.0 | 5.0 | 0.10 | 0.74 | 0.35 | 95 | 1008.5 |
| 20260506110000 | 43 | 319 | 0.0 | 4.0 | 0.09 | 0.73 | 0.34 | 95 | 1008.6 |
| 20260506105459 | 43 | 313 | 0.0 | 4.0 | 0.09 | 0.72 | 0.33 | 95 | 1008.7 |
| 20260506104959 | 43 | 311 | 0.0 | 2.0 | 0.08 | 0.71 | 0.32 | 95 | 1008.8 |
| 20260506104459 | 43 | 336 | 0.0 | 2.0 | 0.07 | 0.70 | 0.31 | 95 | 1008.7 |
| 20260506103959 | 43 | 355 | 0.0 | 2.0 | 0.07 | 0.70 | 0.31 | 95 | 1008.5 |
| 20260506103500 | 43 | 327 | 0.0 | 2.0 | 0.07 | 0.69 | 0.30 | 95 | 1008.3 |
| 20260506103001 | 43 | 329 | 0.0 | 2.0 | 0.07 | 0.69 | 0.30 | 95 | 1008.2 |
| 20260506102459 | 43 | 68 | 0.0 | 2.0 | 0.06 | 0.68 | 0.29 | 95 | 1008.0 |
| 20260506102001 | 43 | 338 | 0.0 | 1.0 | 0.06 | 0.67 | 0.28 | 95 | 1008.2 |
| 20260506101501 | 43 | 355 | 0.0 | 2.0 | 0.05 | 0.66 | 0.27 | 95 | 1008.2 |
| 20260506100959 | 43 | 355 | 0.0 | 2.0 | 0.05 | 0.65 | 0.26 | 95 | 1008.3 |
| 20260506100459 | 43 | 306 | 0.0 | 2.0 | 0.05 | 0.64 | 0.25 | 95 | 1007.9 |
| 20260506095501 | 43 | 338 | 1.0 | 6.0 | 0.05 | 0.63 | 0.24 | 95 | 1007.9 |
| 20260506095002 | 43 | 10 | 1.0 | 6.0 | 0.05 | 0.63 | 0.24 | 95 | 1007.9 |
| 20260506094500 | 43 | 324 | 1.0 | 5.0 | 0.06 | 0.63 | 0.24 | 95 | 1007.8 |
| 20260506094000 | 43 | 84 | 1.0 | 5.0 | 0.06 | 0.63 | 0.24 | 95 | 1007.9 |
| 20260506093006 | 43 | 57 | 1.0 | 3.0 | 0.05 | 0.62 | 0.23 | 95 | 1008.1 |
| 20260506092500 | 43 | 340 | 2.0 | 4.0 | 0.06 | 0.62 | 0.23 | 95 | 1008.3 |
| 20260506092000 | 44 | 346 | 1.0 | 4.0 | 0.06 | 0.61 | 0.22 | 94 | 1008.6 |
| 20260506091501 | 44 | 299 | 0.0 | 3.0 | 0.06 | 0.61 | 0.22 | 94 | 1008.8 |
| 20260506091005 | 44 | 65 | 1.0 | 4.0 | 0.06 | 0.60 | 0.21 | 94 | 1008.9 |
| 20260506090006 | 44 | 329 | 1.0 | 3.0 | 0.06 | 0.59 | 0.20 | 94 | 1008.8 |
| 20260506085500 | 44 | 350 | 1.0 | 4.0 | 0.05 | 0.58 | 0.19 | 94 | 1008.8 |
| 20260506084501 | 44 | 5 | 1.0 | 5.0 | 0.04 | 0.57 | 0.18 | 94 | 1008.9 |
| 20260506083959 | 44 | 346 | 1.0 | 5.0 | 0.04 | 0.57 | 0.18 | 94 | 1008.7 |
| 20260506083458 | 44 | 317 | 1.0 | 5.0 | 0.04 | 0.57 | 0.18 | 94 | 1008.7 |
| 20260506082959 | 44 | 12 | 1.0 | 5.0 | 0.04 | 0.57 | 0.18 | 94 | 1008.7 |
| 20260506082459 | 44 | 324 | 2.0 | 5.0 | 0.03 | 0.56 | 0.17 | 94 | 1008.6 |
| 20260506081459 | 44 | 344 | 1.0 | 5.0 | 0.02 | 0.55 | 0.16 | 94 | 1008.5 |
| 20260506080958 | 44 | 67 | 1.0 | 3.0 | 0.02 | 0.54 | 0.15 | 94 | 1009.2 |
| 20260506080459 | 44 | 305 | 1.0 | 3.0 | 0.02 | 0.54 | 0.15 | 94 | 1008.9 |
| 20260506073459 | 44 | 330 | 2.0 | 6.0 | 0.04 | 0.53 | 0.14 | 93 | 1008.8 |
| 20260506073000 | 44 | 318 | 3.0 | 8.0 | 0.04 | 0.53 | 0.14 | 93 | 1008.6 |
| 20260506072500 | 44 | 355 | 3.0 | 8.0 | 0.05 | 0.53 | 0.14 | 93 | 1008.6 |
| 20260506072000 | 45 | 286 | 3.0 | 9.0 | 0.06 | 0.53 | 0.14 | 93 | 1008.6 |
| 20260506070959 | 46 | 299 | 3.0 | 8.0 | 0.06 | 0.52 | 0.13 | 94 | 1008.4 |
| 20260506070505 | 46 | 322 | 2.0 | 8.0 | 0.06 | 0.52 | 0.13 | 94 | 1008.5 |
| 20260506062000 | 47 | 87 | 0.0 | 4.0 | 0.02 | 0.47 | 0.08 | 95 | 1008.9 |
| 20260506061500 | 47 | 37 | 0.0 | 3.0 | 0.02 | 0.47 | 0.08 | 95 | 1008.9 |
| 20260506060459 | 47 | 30 | 0.0 | 1.0 | 0.01 | 0.46 | 0.07 | 95 | 1009.1 |
| 20260506050958 | 47 | 346 | 0.0 | 1.0 | 0.03 | 0.45 | 0.06 | 95 | 1009.9 |
| 20260506050459 | 47 | 344 | 0.0 | 2.0 | 0.05 | 0.45 | 0.06 | 95 | 1010.0 |
| 20260506045005 | 47 | 64 | 0.0 | 2.0 | 0.07 | 0.45 | 0.06 | 95 | 1009.8 |
| 20260506044505 | 47 | 292 | 0.0 | 1.0 | 0.08 | 0.44 | 0.05 | 95 | 1010.0 |
| 20260506044001 | 47 | 243 | 0.0 | 1.0 | 0.09 | 0.44 | 0.05 | 95 | 1010.1 |
| 20260506043505 | 47 | 305 | 0.0 | 1.0 | 0.10 | 0.44 | 0.05 | 95 | 1010.0 |
| 20260506043006 | 47 | 297 | 0.0 | 0.0 | 0.11 | 0.44 | 0.05 | 95 | 1010.3 |
| 20260506042504 | 47 | 297 | 0.0 | 1.0 | 0.12 | 0.44 | 0.05 | 95 | 1010.1 |
| 20260506042003 | 47 | 297 | 0.0 | 1.0 | 0.11 | 0.43 | 0.04 | 95 | 1009.8 |
| 20260506040503 | 47 | 29 | 0.0 | 0.0 | 0.10 | 0.40 | 0.01 | 94 | 1010.4 |
| 20260506035505 | 47 | 30 | 0.0 | 2.0 | 0.09 | 0.38 | 0.38 | 94 | 1009.9 |
| 20260506035005 | 47 | 54 | 0.0 | 2.0 | 0.09 | 0.37 | 0.37 | 94 | 1009.9 |
| 20260506034005 | 47 | 18 | 0.0 | 0.0 | 0.08 | 0.35 | 0.35 | 94 | 1010.3 |
| 20260506033505 | 47 | 18 | 0.0 | 2.0 | 0.07 | 0.34 | 0.34 | 94 | 1010.2 |
| 20260506033001 | 47 | 15 | 0.0 | 2.0 | 0.07 | 0.33 | 0.33 | 94 | 1010.1 |
| 20260506032505 | 47 | 314 | 1.0 | 3.0 | 0.07 | 0.32 | 0.32 | 94 | 1010.1 |
| 20260506032006 | 47 | 310 | 1.0 | 3.0 | 0.06 | 0.31 | 0.31 | 94 | 1009.7 |
| 20260506031505 | 48 | 347 | 0.0 | 2.0 | 0.07 | 0.31 | 0.31 | 94 | 1009.7 |
| 20260506030505 | 48 | 345 | 0.0 | 0.0 | 0.08 | 0.30 | 0.30 | 94 | 1010.2 |
| 20260506030006 | 48 | 355 | 0.0 | 0.0 | 0.08 | 0.29 | 0.29 | 94 | 1010.2 |
| 20260506025503 | 48 | 21 | 0.0 | 0.0 | 0.08 | 0.29 | 0.29 | 94 | 1010.4 |
| 20260506025000 | 48 | 21 | 0.0 | 0.0 | 0.08 | 0.28 | 0.28 | 94 | 1010.4 |
| 20260506024505 | 48 | 21 | 0.0 | 1.0 | 0.09 | 0.27 | 0.27 | 93 | 1010.7 |
| 20260506024005 | 48 | 334 | 0.0 | 1.0 | 0.10 | 0.27 | 0.27 | 94 | 1010.7 |
| 20260506023504 | 48 | 355 | 0.0 | 2.0 | 0.10 | 0.27 | 0.27 | 93 | 1010.3 |
| 20260506023005 | 48 | 94 | 0.0 | 2.0 | 0.10 | 0.26 | 0.26 | 94 | 1010.3 |
| 20260506022506 | 48 | 151 | 0.0 | 0.0 | 0.11 | 0.25 | 0.25 | 94 | 1010.2 |
| 20260506022005 | 48 | 152 | 0.0 | 0.0 | 0.12 | 0.25 | 0.25 | 93 | 1010.6 |
| 20260506021505 | 48 | 152 | 0.0 | 0.0 | 0.12 | 0.24 | 0.24 | 93 | 1010.7 |